Previsão horária em Aba

Hoje, 15 Abril, Quinta-feira

Tempo Temperatura Precipitação Vento Pressão Humidade
00:00 +27°C° 0 mm 1 m/s 752 mmHg 90%
01:00 +27°C° 0 mm 1 m/s 752 mmHg 90%
02:00 +26°C° 0 mm 1 m/s 751 mmHg 90%
03:00 +26°C° 0 mm 1 m/s 751 mmHg 90%
04:00 +26°C° 0 mm 1 m/s 751 mmHg 90%
05:00 +27°C° 0 mm 1 m/s 752 mmHg 89%
06:00 +27°C° 0 mm 1 m/s 752 mmHg 89%
07:00 +29°C° 0 mm 1 m/s 752 mmHg 79%
08:00 +31°C° 0 mm 1 m/s 752 mmHg 70%
09:00 +32°C° 0 mm 2 m/s 753 mmHg 60%
10:00 +34°C° 0 mm 1 m/s 752 mmHg 54%
11:00 +36°C° 0 mm 1 m/s 751 mmHg 47%
12:00 +39°C° 0 mm 1 m/s 751 mmHg 41%
13:00 +39°C° 0 mm 1 m/s 750 mmHg 40%
14:00 +39°C° 0 mm 1 m/s 749 mmHg 39%
15:00 +39°C° 0 mm 1 m/s 749 mmHg 38%
16:00 +36°C° 0 mm 1 m/s 749 mmHg 45%
17:00 +35°C° 0 mm 2 m/s 749 mmHg 53%
18:00 +33°C° 0 mm 3 m/s 749 mmHg 61%
19:00 +31°C° 0 mm 3 m/s 750 mmHg 66%
20:00 +30°C° 0 mm 3 m/s 750 mmHg 70%
21:00 +29°C° 0 mm 3 m/s 751 mmHg 75%
22:00 +29°C° 0 mm 3 m/s 751 mmHg 77%
23:00 +29°C° 0 mm 3 m/s 751 mmHg 78%

Amanhã, 16 Abril, Sexta-feira

Tempo Temperatura Precipitação Vento Pressão Humidade
00:00 +28°C° 0 mm 3 m/s 750 mmHg 80%
01:00 +28°C° 0 mm 2 m/s 750 mmHg 82%
02:00 +28°C° 0 mm 2 m/s 750 mmHg 84%
03:00 +28°C° 0 mm 1 m/s 750 mmHg 86%
04:00 +28°C° 0 mm 1 m/s 750 mmHg 86%
05:00 +28°C° 0 mm 1 m/s 751 mmHg 87%
06:00 +28°C° 0 mm 1 m/s 751 mmHg 87%
07:00 +30°C° 0 mm 2 m/s 751 mmHg 79%
08:00 +31°C° 0 mm 2 m/s 752 mmHg 70%
09:00 +34°C° 0 mm 2 m/s 752 mmHg 62%
10:00 +34°C° 0.1 mm 3 m/s 752 mmHg 61%
11:00 +34°C° 0.1 mm 3 m/s 751 mmHg 60%
12:00 +34°C° 0.1 mm 3 m/s 751 mmHg 59%
13:00 +34°C° 0.8 mm 3 m/s 750 mmHg 60%
14:00 +34°C° 0.8 mm 3 m/s 750 mmHg 60%
15:00 +34°C° 0.8 mm 3 m/s 749 mmHg 60%
16:00 +33°C° 0.2 mm 3 m/s 749 mmHg 65%
17:00 +31°C° 0.2 mm 3 m/s 750 mmHg 70%
18:00 +30°C° 0.2 mm 3 m/s 750 mmHg 75%
19:00 +29°C° 0 mm 3 m/s 750 mmHg 78%
20:00 +29°C° 0 mm 3 m/s 751 mmHg 81%
21:00 +28°C° 0 mm 2 m/s 751 mmHg 83%
22:00 +28°C° 0 mm 2 m/s 751 mmHg 85%
23:00 +28°C° 0 mm 2 m/s 751 mmHg 87%

Depois de amanhã, 17 Abril, Sábado

Tempo Temperatura Precipitação Vento Pressão Humidade
00:00 +28°C° 0 mm 2 m/s 751 mmHg 88%
01:00 +28°C° 0 mm 2 m/s 751 mmHg 88%
02:00 +28°C° 0 mm 2 m/s 750 mmHg 88%
03:00 +28°C° 0 mm 2 m/s 750 mmHg 88%
04:00 +28°C° 0 mm 2 m/s 751 mmHg 88%
05:00 +28°C° 0 mm 1 m/s 751 mmHg 88%
06:00 +28°C° 0 mm 1 m/s 751 mmHg 88%
07:00 +29°C° 0 mm 2 m/s 752 mmHg 80%
08:00 +31°C° 0 mm 2 m/s 752 mmHg 71%
09:00 +33°C° 0 mm 3 m/s 753 mmHg 63%
10:00 +33°C° 0.6 mm 3 m/s 752 mmHg 63%
11:00 +34°C° 0.6 mm 3 m/s 752 mmHg 62%
12:00 +34°C° 0.6 mm 3 m/s 751 mmHg 61%
13:00 +34°C° 0.7 mm 3 m/s 751 mmHg 61%
14:00 +34°C° 0.7 mm 2 m/s 751 mmHg 61%
15:00 +34°C° 0.7 mm 2 m/s 750 mmHg 61%
16:00 +32°C° 0.2 mm 2 m/s 751 mmHg 66%
17:00 +30°C° 0.2 mm 2 m/s 751 mmHg 72%
18:00 +29°C° 0.2 mm 2 m/s 751 mmHg 78%
19:00 +29°C° 0 mm 2 m/s 752 mmHg 80%
20:00 +28°C° 0 mm 1 m/s 752 mmHg 82%
21:00 +28°C° 0 mm 1 m/s 753 mmHg 83%
22:00 +28°C° 0 mm 1 m/s 752 mmHg 84%
23:00 +28°C° 0 mm 2 m/s 752 mmHg 85%

18 Abril, Domingo

Tempo Temperatura Precipitação Vento Pressão Humidade
00:00 +27°C° 0 mm 2 m/s 751 mmHg 86%
01:00 +27°C° 0 mm 2 m/s 751 mmHg 87%
02:00 +27°C° 0 mm 1 m/s 751 mmHg 87%
03:00 +27°C° 0 mm 1 m/s 751 mmHg 88%
04:00 +27°C° 0 mm 1 m/s 752 mmHg 88%
05:00 +27°C° 0 mm 1 m/s 752 mmHg 88%
06:00 +27°C° 0 mm 1 m/s 752 mmHg 88%
07:00 +29°C° 0 mm 1 m/s 753 mmHg 80%
08:00 +31°C° 0 mm 2 m/s 753 mmHg 72%
09:00 +32°C° 0 mm 2 m/s 753 mmHg 64%
10:00 +34°C° 0.1 mm 2 m/s 753 mmHg 61%
11:00 +34°C° 0.1 mm 2 m/s 752 mmHg 58%
12:00 +35°C° 0.1 mm 2 m/s 752 mmHg 55%
13:00 +34°C° 0.6 mm 2 m/s 751 mmHg 58%
14:00 +34°C° 0.6 mm 2 m/s 751 mmHg 60%
15:00 +32°C° 0.6 mm 2 m/s 751 mmHg 63%
16:00 +31°C° 0.1 mm 2 m/s 751 mmHg 68%
17:00 +30°C° 0.1 mm 2 m/s 751 mmHg 73%
18:00 +29°C° 0.1 mm 2 m/s 751 mmHg 78%
19:00 +29°C° 0 mm 2 m/s 752 mmHg 80%
20:00 +29°C° 0 mm 2 m/s 752 mmHg 81%
21:00 +28°C° 0 mm 1 m/s 753 mmHg 82%
22:00 +28°C° 0 mm 1 m/s 753 mmHg 84%
23:00 +28°C° 0 mm 1 m/s 752 mmHg 85%

19 Abril, Segunda-feira

Tempo Temperatura Precipitação Vento Pressão Humidade
00:00 +28°C° 0 mm 1 m/s 752 mmHg 86%
01:00 +28°C° 0 mm 1 m/s 752 mmHg 87%
02:00 +28°C° 0 mm 1 m/s 752 mmHg 88%
03:00 +27°C° 0 mm 1 m/s 752 mmHg 88%
04:00 +27°C° 0 mm 1 m/s 752 mmHg 88%
05:00 +28°C° 0 mm 1 m/s 752 mmHg 88%
06:00 +28°C° 0 mm 1 m/s 752 mmHg 88%
07:00 +29°C° 0 mm 1 m/s 752 mmHg 81%
08:00 +31°C° 0 mm 1 m/s 753 mmHg 73%
09:00 +32°C° 0 mm 1 m/s 753 mmHg 65%
10:00 +34°C° 0 mm 2 m/s 753 mmHg 60%
11:00 +36°C° 0 mm 2 m/s 752 mmHg 55%
12:00 +37°C° 0 mm 2 m/s 752 mmHg 50%
13:00 +36°C° 0.1 mm 2 m/s 751 mmHg 54%
14:00 +35°C° 0.1 mm 3 m/s 750 mmHg 57%
15:00 +34°C° 0.1 mm 3 m/s 750 mmHg 60%
16:00 +33°C° 0 mm 3 m/s 750 mmHg 64%
17:00 +31°C° 0 mm 3 m/s 750 mmHg 68%
18:00 +30°C° 0 mm 3 m/s 750 mmHg 72%
19:00 +30°C° 0.3 mm 3 m/s 751 mmHg 75%
20:00 +29°C° 0.3 mm 2 m/s 751 mmHg 79%
21:00 +28°C° 0.3 mm 2 m/s 752 mmHg 82%
22:00 +28°C° 0.1 mm 2 m/s 752 mmHg 84%
23:00 +28°C° 0.1 mm 1 m/s 752 mmHg 86%

20 Abril, Terça-feira

Tempo Temperatura Precipitação Vento Pressão Humidade
00:00 +28°C° 0.1 mm 1 m/s 752 mmHg 88%
01:00 +28°C° 0 mm 1 m/s 751 mmHg 89%
02:00 +28°C° 0 mm 1 m/s 751 mmHg 89%
03:00 +28°C° 0 mm 1 m/s 751 mmHg 90%
04:00 +28°C° 0 mm 1 m/s 751 mmHg 90%
05:00 +28°C° 0 mm 1 m/s 752 mmHg 90%
06:00 +28°C° 0 mm 1 m/s 752 mmHg 90%
07:00 +29°C° 0 mm 1 m/s 752 mmHg 83%
08:00 +30°C° 0 mm 1 m/s 753 mmHg 77%
09:00 +31°C° 0 mm 2 m/s 753 mmHg 70%
10:00 +32°C° 0 mm 2 m/s 753 mmHg 66%
11:00 +34°C° 0 mm 2 m/s 752 mmHg 62%
12:00 +34°C° 0 mm 2 m/s 752 mmHg 58%
13:00 +35°C° 0 mm 2 m/s 751 mmHg 56%
14:00 +35°C° 0 mm 2 m/s 750 mmHg 55%
15:00 +36°C° 0 mm 3 m/s 749 mmHg 53%
16:00 +34°C° 0 mm 3 m/s 750 mmHg 59%
17:00 +32°C° 0 mm 2 m/s 750 mmHg 65%
18:00 +30°C° 0 mm 2 m/s 750 mmHg 71%
19:00 +30°C° 0 mm 2 m/s 751 mmHg 75%
20:00 +29°C° 0 mm 2 m/s 751 mmHg 78%
21:00 +29°C° 0 mm 2 m/s 752 mmHg 81%
22:00 +28°C° 0 mm 1 m/s 752 mmHg 82%
23:00 +28°C° 0 mm 1 m/s 751 mmHg 83%
Mostrar mais

Necessitamos do seu Consentimento

A Meteoprog e os seus Fornecedores de Serviços podem armazenar e aceder a dados pessoais como cookies, identificadores do dispositivo ou outras tecnologias semelhantes existentes no seu dispositivo e processar estes dados para personalizar conteúdos e anúncios, assim como funcionalidades nas redes sociais e análise de tráfego.

  • Armazenar e/ou aceder a informações no seu dispositivo

    Os cookies, identificadores do dispositivo ou outras informações podem ser armazenados ou acedidos no seu dispositivo, para os fins acima indicados.

  • Anúncios e conteúdos personalizados, medição de anúncios e conteúdos, dados sobre o público-alvo e desenvolvimento de produtos

    Os anúncios e os conteúdos podem ser personalizados com base num perfil. Podem ser adicionados dados adicionais para uma maior personalização dos anúncios e dos conteúdos. A eficácia dos anúncios e dos conteúdos pode ser medida. Podem ser obtidas informações sobre o público que visualizou os anúncios e os conteúdos. Estes dados podem ser usados para desenvolver ou melhorar sistemas, softwares ou a experiência do utilizador.

Ao clicar em "Eu concordo”, permitirá o uso de cookies, identificadores do dispositivo e web beacons mencionados ou outras tecnologias semelhantes. As configurações do navegador do seu dispositivo podem ser alteradas.

Para certos fins, podem ser invocados interesses legítimos ao invés de consentimento. Pode ler mais informação sobre este assunto na nossa Política de Privacidade e Cookies.